[[[{"header":{"parameterUnit":"kt","parameterCategory":2,"dx":1,"dy":1,"la1":30.253999710083008,"la2":30.299108505249023,"lo1":-89.0895004272461,"lo2":-89.04439544677734,"nx":28,"ny":28,"refTime":"2022-10-24T21:00:00:Z","depth":"0","parameterNumber":2,"parameterNumberName":"U-component_of_CURRENTS"},"data":[-0.2382,-0.2353,-0.2374,-0.2288,-0.2304,-0.2191,-0.2174,-0.2044,-0.1916,-0.1596,-0.1395,-0.1357,-0.163,-0.2128,-0.2217,-0.2184,-0.2128,-0.2111,-0.2056,-0.2195,-0.2205,-0.2213,-0.2233,-0.2127,-0.2127,-0.1943,-0.1942,-0.1941,-0.2462,-0.2483,-0.2514,-0.254,-0.2532,-0.2626,-0.2682,-0.2594,-0.249,-0.2393,-0.2322,-0.227,-0.2245,-0.2232,-0.2249,-0.2185,-0.2154,-0.2153,-0.2181,-0.2126,-0.2235,-0.2252,-0.2149,-0.2149,-0.2149,-0.2149,-0.2149,-0.2149,-0.2606,-0.2612,-0.2663,-0.2695,-0.2756,-0.2803,-0.2778,-0.2847,-0.2857,-0.2756,-0.2932,-0.2699,-0.2747,-0.2455,-0.2373,-0.2278,-0.225,-0.223,-0.2229,-0.2229,-0.2178,-0.2306,-0.218,-0.218,-0.218,-0.2181,-0.2181,0,-0.2709,-0.2742,-0.2782,-0.2836,-0.2881,-0.2944,-0.3006,-0.3047,-0.3155,-0.316,-0.3141,-0.3073,-0.2922,-0.2721,-0.2516,-0.2406,-0.2384,-0.2356,-0.2372,-0.2356,-0.2366,-0.2288,-0.2437,-0.2339,-0.234,-0.2341,-0.2342,-0.2342,-0.2796,-0.2819,-0.2915,-0.2939,-0.2975,-0.3024,-0.3068,-0.3163,-0.3197,-0.3255,-0.3245,-0.3168,-0.307,-0.2837,-0.2692,-0.2501,-0.2466,-0.2389,-0.2395,-0.2421,-0.2402,-0.2406,-0.2357,-0.2354,-0.2352,-0.2351,-0.235,0,-0.2825,-0.2905,-0.2956,-0.3049,-0.3073,-0.3086,-0.3175,-0.32,-0.3247,-0.3256,-0.3251,-0.323,-0.3109,-0.2993,-0.282,-0.274,-0.2563,-0.2529,-0.2546,-0.2517,-0.2432,-0.2437,-0.233,-0.2261,-0.2396,-0.2394,-0.2393,0,-0.2893,-0.2926,-0.3026,-0.305,-0.3093,-0.3159,-0.3191,-0.3213,-0.3246,-0.3259,-0.3238,-0.3212,-0.3102,-0.3009,-0.2899,-0.2739,-0.275,-0.2619,-0.2586,-0.259,-0.2587,-0.2545,-0.2545,-0.2633,-0.2633,-0.2634,-0.2635,0,-0.2892,-0.2997,-0.3049,-0.3076,-0.3168,-0.3186,-0.3214,-0.3237,-0.3256,-0.3233,-0.3234,-0.3166,-0.3111,-0.3014,-0.2891,-0.2899,-0.2747,-0.2738,-0.2622,-0.2618,-0.2553,-0.2546,-0.2538,-0.2636,-0.2636,-0.2636,-0.2637,0,-0.294,-0.2994,-0.3067,-0.3144,-0.316,-0.3189,-0.3213,-0.3238,-0.3231,-0.3222,-0.3182,-0.3136,-0.3076,-0.303,-0.2911,-0.2945,-0.2858,-0.2795,-0.2789,-0.2708,-0.2679,-0.2595,-0.2588,-0.2599,-0.2719,-0.272,-0.2721,0,-0.2923,-0.3004,-0.3044,-0.3103,-0.314,-0.3155,-0.3189,-0.3196,-0.3183,-0.3167,-0.3105,-0.3077,-0.304,-0.301,-0.2967,-0.2889,-0.2844,-0.289,-0.2736,-0.2731,-0.2699,-0.2706,-0.2697,-0.2607,-0.2734,-0.2733,-0.2732,0,-0.2896,-0.299,-0.2994,-0.3023,-0.3069,-0.3081,-0.3115,-0.3129,-0.3132,-0.3106,-0.3092,-0.3052,-0.3007,-0.2977,-0.2931,-0.2889,-0.2862,-0.285,-0.2845,-0.2815,-0.2765,-0.2728,-0.2715,-0.2841,-0.284,-0.2839,-0.2742,0,-0.2922,-0.2956,-0.2976,-0.3018,-0.3036,-0.3061,-0.3069,-0.3072,-0.3052,-0.3038,-0.3015,-0.2957,-0.2912,-0.2907,-0.2874,-0.2854,-0.2831,-0.2807,-0.2762,-0.279,-0.2744,-0.2737,-0.2798,-0.2796,-0.2795,-0.2793,0,0,-0.2877,-0.2913,-0.2916,-0.2954,-0.2969,-0.2955,-0.2989,-0.2984,-0.2969,-0.296,-0.2939,-0.2877,-0.2838,-0.2816,-0.2827,-0.2809,-0.2774,-0.2792,-0.2783,-0.2782,-0.2781,-0.2739,-0.2734,-0.2791,-0.279,-0.279,-0.2789,0,-0.2878,-0.2879,-0.2906,-0.2924,-0.2942,-0.2939,-0.2949,-0.2946,-0.2933,-0.293,-0.2884,-0.2856,-0.2819,-0.2784,-0.2762,-0.2792,-0.2732,-0.2789,-0.2818,-0.2772,-0.2774,-0.2775,-0.2734,-0.273,-0.2786,-0.2786,-0.2786,0,-0.2854,-0.2866,-0.2872,-0.2894,-0.2893,-0.292,-0.2886,-0.2897,-0.2908,-0.2839,-0.2832,-0.2797,-0.2747,-0.2738,-0.2728,-0.2704,-0.2683,-0.2699,-0.2706,-0.2691,-0.264,-0.2642,-0.2645,-0.2616,-0.2615,-0.2615,0,0,-0.2854,-0.2869,-0.288,-0.2893,-0.2903,-0.2889,-0.289,-0.2878,-0.286,-0.2846,-0.281,-0.2767,-0.2743,-0.2723,-0.2694,-0.2681,-0.2633,-0.2682,-0.269,-0.2697,-0.2687,-0.2638,-0.2641,-0.2615,-0.2615,-0.2615,0,0,-0.2848,-0.2863,-0.2855,-0.2874,-0.2882,-0.2871,-0.2875,-0.286,-0.2833,-0.2821,-0.2768,-0.2756,-0.2745,-0.2704,-0.2702,-0.2681,-0.2643,-0.2642,-0.2717,-0.2726,-0.2733,-0.2731,-0.2651,0,0,0,0,0,-0.2848,-0.2866,-0.2859,-0.2862,-0.2861,-0.2878,-0.2875,-0.2852,-0.2829,-0.2837,-0.2795,-0.2759,-0.2692,-0.2689,-0.2679,-0.2694,-0.2606,-0.2608,-0.2609,-0.2701,-0.2712,-0.272,0,0,0,0,0,0,-0.2849,-0.2854,-0.2859,-0.2851,-0.2851,-0.2876,-0.2837,-0.283,-0.2828,-0.2823,-0.2768,-0.2757,-0.2718,-0.2691,-0.2682,-0.2698,-0.2654,-0.2607,-0.2608,-0.2609,-0.2705,-0.2713,-0.272,0,0,0,0,0,-0.285,-0.2854,-0.2862,-0.285,-0.285,-0.2828,-0.2836,-0.283,-0.282,-0.2774,-0.2763,-0.2806,-0.272,-0.2709,-0.2686,-0.2704,-0.266,-0.2657,-0.2608,-0.2609,-0.2609,-0.2709,0,0,0,0,0,0,-0.2851,-0.2834,-0.286,-0.2859,-0.2845,-0.2826,-0.2823,-0.283,-0.2769,-0.2761,-0.2809,-0.2806,-0.2721,-0.2712,-0.2704,-0.2709,-0.2664,-0.2661,-0.2659,-0.2608,-0.2609,-0.261,0,0,0,0,0,0,-0.2832,-0.2833,-0.2859,-0.2854,-0.2852,-0.2824,-0.2822,-0.2792,-0.2767,-0.2805,-0.2802,-0.2808,-0.2726,-0.2715,-0.2708,-0.2663,-0.2668,-0.2665,-0.2663,-0.2662,-0.2609,-0.261,0,0,0,0,0,0,-0.2832,-0.2832,-0.2854,-0.2852,-0.285,-0.2826,-0.2795,-0.2786,-0.2791,-0.2806,-0.2789,-0.2788,-0.2729,-0.2722,-0.2711,-0.2669,-0.2665,-0.2668,-0.2666,-0.2664,-0.2663,0,0,0,0,0,0,0,-0.2831,-0.284,-0.2877,-0.285,-0.2848,-0.2847,-0.2846,-0.2845,-0.279,-0.279,-0.2789,-0.2788,-0.2685,-0.2682,-0.2679,-0.2674,0,0,-0.2668,-0.2667,0,0,0,0,0,0,0,0,-0.2838,-0.2839,-0.2877,-0.2877,-0.2877,-0.2847,-0.2846,-0.2845,-0.279,-0.279,-0.2789,-0.2788,-0.2685,-0.2682,-0.2679,0,0,0,0,0,0,0,0,0,0,0,0,0,0,0,-0.2877,-0.2877,0,-0.2847,-0.2846,-0.2846,-0.279,-0.279,-0.2789,-0.2789,-0.2684,-0.2682,-0.2679,0,0,0,0,0,0,0,0,0,0,0,0,0,0,0,0,0,0,0,0,0,0,0,0,0,0,0,0,0,0,0,0,0,0,0,0,0,0,0,0,0,0,0,0,0,0,0,0,0,0,0,0,0,0,0,0,0,0,0,0,0,0,0,0,0,0,0,0,0]}],[{"header":{"parameterUnit":"kt","parameterCategory":2,"dx":1,"dy":1,"la1":30.253999710083008,"la2":30.299108505249023,"lo1":-89.0895004272461,"lo2":-89.04439544677734,"nx":28,"ny":28,"refTime":"2022-10-24T21:00:00:Z","depth":"0","parameterNumber":3,"parameterNumberName":"V-component_of_CURRENTS"},"data":[-0.1123,-0.1234,-0.1284,-0.1358,-0.1376,-0.1253,-0.1102,-0.071,-0.0326,0.0426,0.1127,0.1727,0.2572,0.3534,0.4065,0.4071,0.4185,0.4107,0.4124,0.3825,0.3749,0.3677,0.3743,0.4395,0.4396,0.4706,0.471,0.4712,-0.1089,-0.1161,-0.125,-0.1308,-0.1345,-0.1322,-0.1156,-0.0939,-0.0595,-0.0196,0.0316,0.1465,0.2156,0.2654,0.3198,0.3354,0.3305,0.3395,0.339,0.3451,0.2934,0.2985,0.3488,0.3487,0.3487,0.3487,0.3486,0.3486,-0.1024,-0.1093,-0.1154,-0.1221,-0.1259,-0.1226,-0.1133,-0.0996,-0.0777,-0.0332,-0.0006,0.0641,0.1353,0.1945,0.2085,0.2488,0.2273,0.2586,0.2587,0.2496,0.2664,0.2024,0.2354,0.2351,0.2349,0.2347,0.2345,0,-0.0967,-0.0982,-0.1024,-0.1108,-0.1129,-0.1125,-0.1072,-0.1008,-0.0776,-0.0562,-0.0149,0.0164,0.0704,0.1226,0.1565,0.17,0.1825,0.1745,0.1961,0.2274,0.2242,0.2389,0.1638,0.1914,0.1909,0.1905,0.1902,0.19,-0.0875,-0.0914,-0.0944,-0.0979,-0.0972,-0.0972,-0.0961,-0.0826,-0.0747,-0.0407,-0.0328,0.002,0.0351,0.0798,0.1076,0.1359,0.1422,0.1617,0.1573,0.1794,0.1847,0.1779,0.188,0.1843,0.185,0.1856,0.1861,0,-0.082,-0.0814,-0.0857,-0.0832,-0.0826,-0.0845,-0.076,-0.0725,-0.0575,-0.0428,-0.0374,-0.0073,0.023,0.0437,0.0702,0.081,0.1183,0.1108,0.1267,0.1332,0.1702,0.1718,0.199,0.2142,0.1339,0.1343,0.1346,0,-0.0719,-0.0742,-0.0728,-0.0748,-0.0771,-0.0687,-0.0661,-0.0584,-0.045,-0.0345,-0.0188,-0.0038,0.0157,0.0354,0.0479,0.0752,0.0717,0.0882,0.0931,0.1073,0.1094,0.1348,0.1378,0.0795,0.0793,0.0792,0.0791,0,-0.0633,-0.0632,-0.0672,-0.0661,-0.0606,-0.0589,-0.0547,-0.0421,-0.0364,-0.0214,-0.0139,0.0024,0.0133,0.0262,0.0466,0.0426,0.0695,0.0663,0.0856,0.0865,0.1082,0.1107,0.1465,0.0789,0.0789,0.0788,0.0788,0,-0.0532,-0.0549,-0.0588,-0.055,-0.054,-0.0523,-0.0435,-0.0389,-0.0245,-0.0176,-0.0063,0.0038,0.017,0.0188,0.0396,0.0342,0.0435,0.0518,0.0527,0.0662,0.0688,0.0996,0.1129,0.1364,0.0627,0.0625,0.0624,0,-0.0464,-0.0505,-0.0455,-0.0466,-0.0477,-0.0383,-0.0344,-0.0266,-0.0183,-0.0103,0.0009,0.0086,0.013,0.0173,0.0245,0.0364,0.0428,0.0347,0.0536,0.0542,0.0642,0.0716,0.091,0.1084,0.0601,0.0603,0.0605,0,-0.0405,-0.0383,-0.0383,-0.0385,-0.032,-0.0302,-0.0257,-0.019,-0.0152,-0.0073,-0.0013,0.0082,0.0141,0.0185,0.025,0.0313,0.0394,0.034,0.0345,0.0402,0.0551,0.0669,0.0696,0.0415,0.0417,0.0419,0.0586,0,-0.033,-0.033,-0.0336,-0.0312,-0.028,-0.0272,-0.0198,-0.0162,-0.0114,-0.0056,0.0024,0.0105,0.0184,0.0209,0.0245,0.0315,0.0335,0.0347,0.0365,0.0376,0.0448,0.0462,0.0305,0.0306,0.0306,0.0307,0,0,-0.0276,-0.0284,-0.0234,-0.0236,-0.0215,-0.0143,-0.0146,-0.01,-0.0032,0.0002,0.0014,0.0139,0.0189,0.0267,0.0271,0.0295,0.0339,0.0295,0.0362,0.0368,0.0374,0.0443,0.0455,0.0308,0.0308,0.0308,0.0308,0,-0.0247,-0.0221,-0.0237,-0.0206,-0.0164,-0.0123,-0.012,-0.006,-0.0029,0.0013,0.0068,0.0126,0.019,0.0248,0.0283,0.0298,0.0349,0.0306,0.0294,0.0365,0.037,0.0374,0.0443,0.0454,0.031,0.031,0.031,0,-0.0201,-0.0177,-0.0176,-0.0136,-0.0106,-0.0089,-0.0044,-0.0021,-0.0001,0.0063,0.0099,0.0149,0.0213,0.0256,0.0278,0.0286,0.0365,0.0326,0.0324,0.0324,0.0399,0.0404,0.0408,0.0351,0.0351,0.0351,0,0,-0.0181,-0.018,-0.0124,-0.0125,-0.0109,-0.0055,-0.0036,-0.0007,0.0039,0.0057,0.0106,0.0157,0.0205,0.0233,0.0275,0.0314,0.0359,0.0328,0.0326,0.0325,0.0324,0.0397,0.0402,0.035,0.035,0.035,0,0,-0.0166,-0.0121,-0.0103,-0.0101,-0.0062,-0.0002,0.0002,0.0033,0.0073,0.0075,0.0135,0.015,0.0191,0.0224,0.0213,0.0282,0.0292,0.0296,0.0257,0.0255,0.0253,0.0241,0.0247,0,0,0,0,0,-0.0115,-0.0127,-0.0112,-0.0104,-0.0051,-0.0011,-0.0002,0.0039,0.0052,0.0055,0.0104,0.0129,0.0232,0.0224,0.0237,0.0247,0.0346,0.0346,0.0347,0.0306,0.0304,0.0302,0,0,0,0,0,0,-0.0112,-0.0104,-0.0111,-0.0055,-0.0041,-0.0011,0.0018,0.003,0.0053,0.0057,0.0119,0.0131,0.017,0.022,0.0231,0.0239,0.0244,0.0346,0.0347,0.0347,0.0305,0.0303,0.0302,0,0,0,0,0,-0.0109,-0.0103,-0.0034,-0.0053,-0.0042,0.0013,0.0018,0.0028,0.0045,0.011,0.0121,0.0073,0.0169,0.0181,0.0227,0.0233,0.0236,0.024,0.0346,0.0347,0.0347,0.0304,0,0,0,0,0,0,-0.0107,-0.009,-0.003,-0.0024,-0.0054,0.0013,0.0022,0.0026,0.0097,0.0108,0.0067,0.0069,0.0168,0.0178,0.0188,0.0229,0.023,0.0234,0.0237,0.0347,0.0347,0.0348,0,0,0,0,0,0,-0.0093,-0.0086,-0.0027,-0.003,-0.0024,0.0012,0.002,0.0061,0.0098,0.005,0.0054,0.0067,0.0158,0.0176,0.0183,0.0246,0.0225,0.0229,0.0232,0.0234,0.0347,0.0348,0,0,0,0,0,0,-0.0089,-0.0082,-0.0031,-0.0027,-0.0021,0.005,0.005,0.0104,0.0088,0.0046,0.0089,0.0089,0.0155,0.0164,0.018,0.0239,0.0244,0.0226,0.0228,0.023,0.0231,0,0,0,0,0,0,0,-0.0085,-0.0143,-0.0065,-0.0024,-0.0019,0.0034,0.0035,0.0037,0.0088,0.0089,0.0089,0.0089,0.0203,0.0207,0.0212,0.0233,0,0,0.0225,0.0227,0,0,0,0,0,0,0,0,-0.0144,-0.0144,-0.0065,-0.0064,-0.0062,0.0034,0.0035,0.0036,0.0088,0.0089,0.0089,0.0089,0.0204,0.0208,0.0211,0,0,0,0,0,0,0,0,0,0,0,0,0,0,0,-0.0065,-0.0064,0,0.0034,0.0035,0.0036,0.0088,0.0089,0.0089,0.0089,0.0205,0.0208,0.0211,0,0,0,0,0,0,0,0,0,0,0,0,0,0,0,0,0,0,0,0,0,0,0,0,0,0,0,0,0,0,0,0,0,0,0,0,0,0,0,0,0,0,0,0,0,0,0,0,0,0,0,0,0,0,0,0,0,0,0,0,0,0,0,0,0,0,0,0,0]}]],[[{"header":{"parameterUnit":"kt","parameterCategory":2,"dx":1,"dy":1,"la1":30.253999710083008,"la2":30.299108505249023,"lo1":-89.0895004272461,"lo2":-89.04439544677734,"nx":28,"ny":28,"refTime":"2022-10-24T21:00:00:Z","depth":"2","parameterNumber":2,"parameterNumberName":"U-component_of_CURRENTS"},"data":[-0.2272,-0.2229,-0.2248,-0.2138,-0.2179,-0.2045,-0.203,-0.1758,-0.1577,-0.1245,-0.1027,-0.1119,-0.1262,-0.0964,-0.1042,-0.0902,-0.1037,-0.085,-0.1366,-0.133,-0.1362,-0.154,-0.1522,0,0,0,0,0,-0.2357,-0.2402,-0.2432,-0.2458,-0.2413,-0.2543,-0.2598,-0.2432,-0.2253,-0.2169,-0.2037,-0.1721,-0.1527,-0.1484,-0.1231,-0.128,-0.1253,-0.1258,-0.1207,-0.1246,-0.1281,-0.1243,-0.0897,-0.0896,-0.0894,-0.0893,0,0,-0.2524,-0.253,-0.2579,-0.2611,-0.2673,-0.2717,-0.2693,-0.2713,-0.2704,-0.2575,-0.2761,-0.2454,-0.246,-0.1889,-0.1812,-0.1693,-0.1829,-0.1742,-0.1755,-0.1772,-0.1759,-0.1758,-0.155,-0.1553,-0.1555,-0.1558,-0.1559,0,-0.2624,-0.2657,-0.2697,-0.275,-0.2795,-0.2856,-0.2919,-0.2959,-0.3065,-0.3058,-0.3041,-0.2966,-0.2769,-0.2441,-0.2215,-0.2082,-0.2115,-0.1996,-0.2351,-0.1906,-0.1906,-0.1887,-0.1912,-0.1729,-0.1733,-0.1736,-0.1738,-0.174,-0.2709,-0.2732,-0.2826,-0.285,-0.2887,-0.2937,-0.298,-0.3074,-0.3107,-0.3166,-0.3155,-0.308,-0.2975,-0.2742,-0.2542,-0.2336,-0.2421,-0.2089,-0.2067,-0.2408,-0.2387,-0.2398,-0.2407,-0.1783,-0.1777,-0.1773,-0.1769,0,-0.2737,-0.2816,-0.2866,-0.2958,-0.2982,-0.2996,-0.3084,-0.3109,-0.3157,-0.3166,-0.3162,-0.3141,-0.3022,-0.2906,-0.2734,-0.2654,-0.2511,-0.2444,-0.2254,-0.2202,-0.2414,-0.2421,-0.2316,-0.2313,-0.2312,-0.231,-0.2309,0,-0.2803,-0.2836,-0.2934,-0.2958,-0.3001,-0.3065,-0.3099,-0.3121,-0.3154,-0.3167,-0.3147,-0.3122,-0.3013,-0.2921,-0.2812,-0.2653,-0.2664,-0.2533,-0.2501,-0.2324,-0.2307,-0.2547,-0.2548,-0.2547,-0.2548,-0.2549,-0.2549,0,-0.2801,-0.2904,-0.2956,-0.2982,-0.3072,-0.3091,-0.3119,-0.3143,-0.3161,-0.314,-0.3142,-0.3075,-0.3022,-0.2925,-0.2804,-0.2812,-0.2661,-0.2652,-0.2536,-0.2533,-0.2292,-0.2269,-0.255,-0.255,-0.255,-0.2551,-0.2551,0,-0.2848,-0.29,-0.2972,-0.3047,-0.3064,-0.3093,-0.3117,-0.3143,-0.3136,-0.3128,-0.309,-0.3045,-0.2986,-0.2942,-0.2823,-0.2857,-0.2772,-0.2708,-0.2703,-0.2622,-0.2593,-0.2321,-0.227,-0.2632,-0.2633,-0.2634,-0.2635,0,-0.2831,-0.291,-0.2949,-0.3007,-0.3043,-0.3059,-0.3092,-0.31,-0.3087,-0.3072,-0.3013,-0.2986,-0.2949,-0.2922,-0.2879,-0.2802,-0.2757,-0.2803,-0.2649,-0.2645,-0.2612,-0.262,-0.2404,-0.2297,-0.2648,-0.2646,-0.2645,0,-0.2804,-0.2896,-0.29,-0.2929,-0.2974,-0.2986,-0.302,-0.3033,-0.3037,-0.3013,-0.3,-0.2961,-0.2918,-0.2888,-0.2843,-0.2802,-0.2775,-0.2763,-0.2758,-0.2728,-0.2678,-0.2641,-0.2629,-0.2754,-0.2753,-0.2752,-0.2656,0,-0.2828,-0.2862,-0.2882,-0.2923,-0.2941,-0.2966,-0.2974,-0.2978,-0.296,-0.2946,-0.2924,-0.2868,-0.2824,-0.2818,-0.2786,-0.2767,-0.2744,-0.272,-0.2675,-0.2703,-0.2658,-0.265,-0.2711,-0.2709,-0.2708,-0.2706,0,0,-0.2785,-0.2819,-0.2823,-0.286,-0.2876,-0.2862,-0.2895,-0.2891,-0.2877,-0.2868,-0.2849,-0.2789,-0.275,-0.2728,-0.2739,-0.2721,-0.2687,-0.2705,-0.2696,-0.2696,-0.2695,-0.2653,-0.2647,-0.2704,-0.2703,-0.2703,-0.2702,0,-0.2785,-0.2787,-0.2813,-0.2831,-0.2849,-0.2846,-0.2856,-0.2854,-0.2842,-0.2839,-0.2795,-0.2767,-0.2731,-0.2696,-0.2674,-0.2704,-0.2645,-0.2702,-0.2731,-0.2686,-0.2687,-0.2688,-0.2648,-0.2644,-0.2699,-0.2699,-0.2699,0,-0.2762,-0.2774,-0.2779,-0.2801,-0.28,-0.2827,-0.2793,-0.2805,-0.2816,-0.2749,-0.2743,-0.2709,-0.2659,-0.265,-0.2641,-0.2617,-0.2596,-0.2612,-0.2619,-0.2605,-0.2554,-0.2556,-0.2558,-0.2529,-0.2529,-0.2529,0,0,-0.2761,-0.2776,-0.2787,-0.28,-0.281,-0.2796,-0.2797,-0.2787,-0.2769,-0.2756,-0.2721,-0.2679,-0.2655,-0.2635,-0.2607,-0.2594,-0.2546,-0.2596,-0.2604,-0.261,-0.2601,-0.2552,-0.2554,-0.2528,-0.2528,-0.2528,0,0,-0.2755,-0.2769,-0.2762,-0.2781,-0.2789,-0.2778,-0.2783,-0.2769,-0.2743,-0.2731,-0.2679,-0.2667,-0.2657,-0.2616,-0.2614,-0.2594,-0.2556,-0.2556,-0.263,-0.2639,-0.2646,-0.2644,-0.2564,0,0,0,0,0,-0.2755,-0.2773,-0.2766,-0.277,-0.2768,-0.2784,-0.2782,-0.276,-0.2738,-0.2746,-0.2706,-0.267,-0.2605,-0.2602,-0.2591,-0.2607,-0.252,-0.2521,-0.2523,-0.2615,-0.2625,-0.2633,0,0,0,0,0,0,-0.2757,-0.2761,-0.2766,-0.2758,-0.2758,-0.2782,-0.2745,-0.2738,-0.2737,-0.2733,-0.2679,-0.2669,-0.263,-0.2604,-0.2595,-0.2611,-0.2567,-0.252,-0.2522,-0.2523,-0.2618,-0.2627,-0.2634,0,0,0,0,0,-0.2758,-0.2761,-0.2768,-0.2757,-0.2757,-0.2737,-0.2744,-0.2738,-0.273,-0.2684,-0.2673,-0.2717,-0.2631,-0.2621,-0.2598,-0.2617,-0.2573,-0.257,-0.2521,-0.2522,-0.2523,-0.2622,0,0,0,0,0,0,-0.2758,-0.2741,-0.2767,-0.2766,-0.2753,-0.2734,-0.2732,-0.2738,-0.2679,-0.2671,-0.2718,-0.2716,-0.2632,-0.2624,-0.2616,-0.2622,-0.2578,-0.2574,-0.2572,-0.2522,-0.2523,-0.2523,0,0,0,0,0,0,-0.274,-0.274,-0.2766,-0.2762,-0.2759,-0.2733,-0.273,-0.2701,-0.2677,-0.2714,-0.2712,-0.2718,-0.2638,-0.2626,-0.262,-0.2575,-0.2581,-0.2578,-0.2576,-0.2575,-0.2523,-0.2523,0,0,0,0,0,0,-0.2739,-0.2739,-0.2761,-0.276,-0.2757,-0.2735,-0.2703,-0.2695,-0.2701,-0.2716,-0.2699,-0.2698,-0.264,-0.2634,-0.2623,-0.2581,-0.2576,-0.2581,-0.2579,-0.2578,-0.2577,0,0,0,0,0,0,0,-0.2739,-0.2747,-0.2783,-0.2758,-0.2756,-0.2755,-0.2753,-0.2752,-0.27,-0.27,-0.2699,-0.2698,-0.2598,-0.2595,-0.2592,-0.2586,0,0,-0.2581,-0.258,0,0,0,0,0,0,0,0,-0.2746,-0.2746,-0.2783,-0.2783,-0.2783,-0.2754,-0.2754,-0.2753,-0.27,-0.27,-0.2699,-0.2699,-0.2597,-0.2595,-0.2592,0,0,0,0,0,0,0,0,0,0,0,0,0,0,0,-0.2783,-0.2783,0,-0.2754,-0.2754,-0.2753,-0.27,-0.27,-0.2699,-0.2699,-0.2597,-0.2595,-0.2592,0,0,0,0,0,0,0,0,0,0,0,0,0,0,0,0,0,0,0,0,0,0,0,0,0,0,0,0,0,0,0,0,0,0,0,0,0,0,0,0,0,0,0,0,0,0,0,0,0,0,0,0,0,0,0,0,0,0,0,0,0,0,0,0,0,0,0,0,0]}],[{"header":{"parameterUnit":"kt","parameterCategory":2,"dx":1,"dy":1,"la1":30.253999710083008,"la2":30.299108505249023,"lo1":-89.0895004272461,"lo2":-89.04439544677734,"nx":28,"ny":28,"refTime":"2022-10-24T21:00:00:Z","depth":"2","parameterNumber":3,"parameterNumberName":"V-component_of_CURRENTS"},"data":[-0.1224,-0.1341,-0.1391,-0.1489,-0.1495,-0.1431,-0.1283,-0.1264,-0.1038,-0.0728,-0.0481,-0.0272,0.0152,0.0169,0.0421,0.0576,0.061,0.0577,0.0903,0.057,0.0575,0.0671,0.055,0,0,0,0,0,-0.1186,-0.1244,-0.1333,-0.1392,-0.1457,-0.1408,-0.1248,-0.12,-0.1004,-0.0651,-0.0338,-0.0176,0.0107,0.0465,0.0657,0.0897,0.0772,0.0944,0.0679,0.0684,0.0689,0.0611,0.0637,0.0638,0.0638,0.0639,0,0,-0.1108,-0.1175,-0.1236,-0.1304,-0.1342,-0.1313,-0.1221,-0.1176,-0.0992,-0.0643,-0.0344,0.0008,0.0317,0.0658,0.0902,0.1048,0.1087,0.1042,0.1033,0.1027,0.0976,0.0939,0.1093,0.1096,0.1098,0.1101,0.1103,0,-0.1051,-0.1065,-0.1106,-0.119,-0.1212,-0.1209,-0.1158,-0.1097,-0.0868,-0.0679,-0.0276,0.0014,0.0446,0.0689,0.0982,0.1081,0.0997,0.1057,0.1224,0.0657,0.0606,0.0621,0.0613,0.0708,0.0709,0.0709,0.071,0.071,-0.0959,-0.0998,-0.1027,-0.1062,-0.1055,-0.1055,-0.1045,-0.091,-0.0834,-0.05,-0.0423,-0.0079,0.0228,0.0671,0.0833,0.1082,0.1108,0.1057,0.0954,0.1051,0.1075,0.1053,0.1034,0.0719,0.0718,0.0717,0.0716,0,-0.0904,-0.0899,-0.0942,-0.0917,-0.0911,-0.0929,-0.0845,-0.0811,-0.0661,-0.0518,-0.0464,-0.0166,0.0133,0.0339,0.0602,0.0708,0.0914,0.1001,0.0732,0.0748,0.1014,0.1,0.1217,0.1223,0.1227,0.1232,0.1235,0,-0.0805,-0.0828,-0.0814,-0.0834,-0.0857,-0.0774,-0.0747,-0.067,-0.0537,-0.0435,-0.0277,-0.013,0.0064,0.0259,0.0383,0.0652,0.0619,0.0779,0.0826,0.0594,0.0584,0.0631,0.0622,0.0695,0.0694,0.0693,0.0692,0,-0.072,-0.0719,-0.0759,-0.0748,-0.0695,-0.0677,-0.0635,-0.051,-0.0454,-0.0304,-0.023,-0.0068,0.004,0.0169,0.037,0.033,0.0596,0.0564,0.0752,0.0761,0.0611,0.0605,0.069,0.069,0.069,0.0689,0.0689,0,-0.0621,-0.0638,-0.0677,-0.0639,-0.063,-0.0612,-0.0525,-0.0479,-0.0337,-0.0268,-0.0155,-0.0055,0.0076,0.0093,0.03,0.0246,0.0338,0.042,0.0428,0.0559,0.0583,0.0499,0.0539,0.0529,0.0527,0.0525,0.0523,0,-0.0554,-0.0595,-0.0546,-0.0556,-0.0567,-0.0474,-0.0436,-0.0359,-0.0276,-0.0197,-0.0086,-0.0009,0.0034,0.0077,0.0149,0.0265,0.033,0.0249,0.0436,0.0441,0.0537,0.0612,0.0375,0.0513,0.05,0.0503,0.0504,0,-0.0496,-0.0475,-0.0475,-0.0477,-0.0413,-0.0395,-0.0351,-0.0284,-0.0246,-0.0168,-0.0108,-0.0015,0.0044,0.0087,0.0151,0.0215,0.0295,0.0241,0.0245,0.0303,0.0451,0.0565,0.0592,0.0316,0.0318,0.032,0.0486,0,-0.0422,-0.0423,-0.0428,-0.0406,-0.0374,-0.0366,-0.0293,-0.0257,-0.021,-0.0152,-0.0072,0.0007,0.0085,0.011,0.0144,0.0214,0.0234,0.0245,0.0263,0.0275,0.0346,0.036,0.0202,0.0203,0.0203,0.0204,0,0,-0.0369,-0.0378,-0.0329,-0.0331,-0.031,-0.0239,-0.0242,-0.0197,-0.013,-0.0095,-0.0084,0.0039,0.0088,0.0165,0.017,0.0192,0.0236,0.0193,0.026,0.0266,0.0272,0.034,0.0353,0.0205,0.0205,0.0205,0.0206,0,-0.0341,-0.0315,-0.0331,-0.0301,-0.026,-0.022,-0.0216,-0.0158,-0.0126,-0.0085,-0.0031,0.0026,0.0088,0.0146,0.018,0.0195,0.0245,0.0203,0.0192,0.0263,0.0268,0.0273,0.034,0.0352,0.0207,0.0207,0.0207,0,-0.0296,-0.0272,-0.0272,-0.0233,-0.0203,-0.0187,-0.0142,-0.012,-0.01,-0.0037,-0.0001,0.0048,0.011,0.0153,0.0174,0.0182,0.0261,0.0222,0.022,0.0221,0.0295,0.03,0.0305,0.0246,0.0246,0.0246,0,0,-0.0276,-0.0276,-0.0222,-0.0223,-0.0207,-0.0154,-0.0135,-0.0106,-0.0061,-0.0043,0.0005,0.0056,0.0103,0.0131,0.0172,0.0209,0.0255,0.0224,0.0222,0.0221,0.0221,0.0293,0.0298,0.0245,0.0245,0.0245,0,0,-0.0262,-0.0218,-0.02,-0.0199,-0.0161,-0.0103,-0.0098,-0.0067,-0.0027,-0.0025,0.0034,0.0049,0.009,0.0122,0.0111,0.0178,0.0189,0.0192,0.0155,0.0153,0.0151,0.014,0.0145,0,0,0,0,0,-0.0212,-0.0224,-0.0209,-0.0202,-0.015,-0.0112,-0.0103,-0.0062,-0.0048,-0.0045,0.0004,0.0028,0.013,0.0122,0.0134,0.0144,0.024,0.0241,0.0242,0.0203,0.0201,0.0199,0,0,0,0,0,0,-0.0209,-0.0202,-0.0208,-0.0154,-0.0141,-0.0112,-0.0082,-0.0071,-0.0047,-0.0043,0.0019,0.003,0.0068,0.0118,0.0129,0.0137,0.0141,0.0241,0.0241,0.0242,0.0202,0.02,0.0199,0,0,0,0,0,-0.0206,-0.02,-0.0134,-0.0152,-0.0141,-0.0086,-0.0082,-0.0072,-0.0055,0.0008,0.002,-0.0026,0.0067,0.008,0.0125,0.0132,0.0134,0.0138,0.0241,0.0242,0.0242,0.0201,0,0,0,0,0,0,-0.0204,-0.0188,-0.013,-0.0124,-0.0152,-0.0087,-0.0078,-0.0074,-0.0004,0.0007,-0.0034,-0.0031,0.0066,0.0076,0.0086,0.0127,0.0128,0.0132,0.0134,0.0242,0.0242,0.0242,0,0,0,0,0,0,-0.0191,-0.0184,-0.0127,-0.0129,-0.0123,-0.0088,-0.008,-0.004,-0.0003,-0.005,-0.0046,-0.0033,0.0057,0.0074,0.0081,0.0141,0.0123,0.0127,0.013,0.0132,0.0242,0.0242,0,0,0,0,0,0,-0.0186,-0.018,-0.013,-0.0126,-0.012,-0.005,-0.0051,0.0002,-0.0012,-0.0054,-0.0011,-0.0011,0.0054,0.0063,0.0078,0.0135,0.014,0.0124,0.0126,0.0128,0.0129,0,0,0,0,0,0,0,-0.0183,-0.0239,-0.0164,-0.0123,-0.0118,-0.0068,-0.0066,-0.0065,-0.0012,-0.0012,-0.0012,-0.0011,0.0102,0.0106,0.011,0.0129,0,0,0.0123,0.0125,0,0,0,0,0,0,0,0,-0.024,-0.024,-0.0164,-0.0163,-0.0161,-0.0067,-0.0066,-0.0065,-0.0012,-0.0012,-0.0012,-0.0011,0.0103,0.0106,0.011,0,0,0,0,0,0,0,0,0,0,0,0,0,0,0,-0.0164,-0.0163,0,-0.0067,-0.0066,-0.0065,-0.0012,-0.0012,-0.0012,-0.0012,0.0104,0.0107,0.0109,0,0,0,0,0,0,0,0,0,0,0,0,0,0,0,0,0,0,0,0,0,0,0,0,0,0,0,0,0,0,0,0,0,0,0,0,0,0,0,0,0,0,0,0,0,0,0,0,0,0,0,0,0,0,0,0,0,0,0,0,0,0,0,0,0,0,0,0,0]}]],[[{"header":{"parameterUnit":"kt","parameterCategory":2,"dx":1,"dy":1,"la1":30.253999710083008,"la2":30.299108505249023,"lo1":-89.0895004272461,"lo2":-89.04439544677734,"nx":28,"ny":28,"refTime":"2022-10-24T21:00:00:Z","depth":"4","parameterNumber":2,"parameterNumberName":"U-component_of_CURRENTS"},"data":[-0.1087,-0.1108,-0.111,-0.1037,-0.101,-0.1086,-0.1184,-0.1316,-0.1286,-0.1473,-0.1387,-0.1554,-0.1412,-0.1555,-0.1303,-0.1302,-0.1295,-0.1351,-0.1346,-0.1411,-0.1426,-0.1439,-0.1464,0,0,0,0,0,-0.1159,-0.1137,-0.1184,-0.1223,-0.1325,-0.1363,-0.1555,-0.1667,-0.1842,-0.1736,-0.1814,-0.1702,-0.1558,-0.1551,-0.1377,-0.1537,-0.144,-0.1333,-0.1384,-0.142,-0.1437,-0.1455,0,0,0,0,0,0,-0.1262,-0.1273,-0.135,-0.1413,-0.1526,-0.1554,-0.166,-0.1712,-0.1782,-0.1932,-0.1901,-0.187,-0.1919,-0.1736,-0.1619,-0.1492,-0.1454,-0.14,-0.1416,-0.1432,-0.144,-0.1436,-0.1224,0,0,0,0,0,-0.1349,-0.1415,-0.1477,-0.1572,-0.1667,-0.1762,-0.1877,-0.1899,-0.2055,-0.2201,-0.2128,-0.2058,-0.1944,-0.1818,-0.1688,-0.1564,-0.1672,-0.1574,-0.1582,-0.1601,-0.1608,-0.1589,-0.1604,-0.1499,-0.1501,-0.1503,-0.1503,0,-0.1444,-0.1479,-0.1641,-0.1692,-0.1769,-0.1886,-0.1963,-0.2122,-0.2168,-0.2282,-0.2268,-0.2246,-0.2229,-0.1934,-0.1901,-0.1716,-0.1679,-0.1617,-0.1639,-0.1636,-0.1609,-0.1621,-0.1632,-0.1517,-0.1516,-0.1515,-0.1513,0,-0.1484,-0.1587,-0.1672,-0.1827,-0.188,-0.1936,-0.2105,-0.2158,-0.2263,-0.2305,-0.2325,-0.2358,-0.2262,-0.2192,-0.2059,-0.1961,-0.1821,-0.1742,-0.1922,-0.1896,-0.1653,-0.1658,-0.1539,-0.1534,-0.153,-0.1526,-0.1523,0,-0.1574,-0.1636,-0.178,-0.1817,-0.1908,-0.2013,-0.2107,-0.2171,-0.2261,-0.2297,-0.2347,-0.2341,-0.2301,-0.2234,-0.2146,-0.1973,-0.2027,-0.184,-0.18,-0.1969,-0.1973,-0.1921,-0.1921,-0.1938,-0.1939,-0.194,-0.194,0,-0.1595,-0.1724,-0.1796,-0.1837,-0.1973,-0.2033,-0.2104,-0.2187,-0.2238,-0.2293,-0.2323,-0.2312,-0.2301,-0.2229,-0.214,-0.215,-0.2026,-0.2019,-0.1845,-0.1836,-0.1925,-0.1923,-0.1941,-0.1941,-0.1942,-0.1942,-0.1942,0,-0.1657,-0.1715,-0.1805,-0.1924,-0.1952,-0.2016,-0.211,-0.217,-0.2229,-0.226,-0.2275,-0.227,-0.2261,-0.223,-0.215,-0.2179,-0.211,-0.2057,-0.2051,-0.1905,-0.1862,-0.1929,-0.1971,-0.1971,-0.1972,-0.1973,-0.1974,0,-0.1652,-0.1732,-0.1786,-0.1878,-0.1924,-0.1986,-0.2052,-0.2108,-0.2147,-0.2187,-0.2177,-0.2205,-0.2186,-0.2194,-0.2172,-0.212,-0.2088,-0.2125,-0.1989,-0.1984,-0.1877,-0.1886,-0.2083,-0.1984,-0.1983,-0.1982,-0.1981,0,-0.1628,-0.1733,-0.1744,-0.179,-0.1871,-0.1901,-0.1975,-0.2033,-0.2073,-0.2109,-0.2143,-0.2163,-0.2151,-0.2146,-0.2129,-0.2106,-0.2098,-0.2076,-0.2072,-0.2031,-0.2023,-0.1912,-0.1894,-0.2085,-0.2085,-0.2085,-0.1988,0,-0.1656,-0.1706,-0.1729,-0.1788,-0.1828,-0.1873,-0.1918,-0.1961,-0.1993,-0.2012,-0.2052,-0.2043,-0.2052,-0.2061,-0.2049,-0.2063,-0.2035,-0.2015,-0.1969,-0.2012,-0.1964,-0.1959,-0.1993,-0.1991,-0.199,-0.1989,0,0,-0.1622,-0.1661,-0.1682,-0.1721,-0.1757,-0.1782,-0.1828,-0.1857,-0.1901,-0.192,-0.1923,-0.195,-0.1946,-0.1965,-0.1992,-0.1988,-0.1957,-0.1982,-0.1999,-0.2,-0.2001,-0.1958,-0.1954,-0.1986,-0.1986,-0.1985,-0.1985,0,-0.1612,-0.1638,-0.1667,-0.1699,-0.1744,-0.1761,-0.1781,-0.1818,-0.1842,-0.189,-0.1877,-0.1893,-0.1918,-0.1911,-0.1909,-0.1967,-0.1916,-0.1977,-0.2019,-0.1988,-0.1991,-0.1994,-0.1952,-0.1951,-0.1981,-0.1981,-0.1981,0,-0.1592,-0.1611,-0.1627,-0.1666,-0.169,-0.173,-0.1718,-0.1759,-0.1797,-0.1767,-0.1824,-0.1821,-0.1808,-0.1842,-0.1857,-0.1834,-0.1865,-0.1874,-0.1881,-0.1871,-0.1834,-0.1839,-0.1844,-0.1783,-0.1783,-0.1782,0,0,-0.1584,-0.1609,-0.1637,-0.1664,-0.1683,-0.1705,-0.1725,-0.1741,-0.1759,-0.1772,-0.178,-0.1785,-0.1794,-0.1803,-0.1806,-0.1833,-0.1789,-0.1853,-0.1862,-0.187,-0.1864,-0.183,-0.1835,-0.1781,-0.1781,-0.1781,0,0,-0.1575,-0.1605,-0.1616,-0.1646,-0.1676,-0.1692,-0.1718,-0.1729,-0.1754,-0.1761,-0.1747,-0.1748,-0.1785,-0.1766,-0.1751,-0.1798,-0.1755,-0.1758,-0.182,-0.1831,-0.184,-0.1833,-0.1715,0,0,0,0,0,-0.1579,-0.16,-0.161,-0.1618,-0.1655,-0.1687,-0.1693,-0.1712,-0.1716,-0.1739,-0.1747,-0.1726,-0.1756,-0.1742,-0.1741,-0.1775,-0.1763,-0.1766,-0.1769,-0.1855,-0.1867,-0.1877,0,0,0,0,0,0,-0.1582,-0.159,-0.161,-0.1625,-0.1634,-0.1685,-0.1674,-0.1679,-0.1715,-0.1717,-0.1726,-0.1725,-0.1711,-0.174,-0.174,-0.1774,-0.1715,-0.1764,-0.1767,-0.1769,-0.1859,-0.1868,-0.1877,0,0,0,0,0,-0.1585,-0.1591,-0.1648,-0.1625,-0.1633,-0.1662,-0.1674,-0.1678,-0.171,-0.17,-0.1702,-0.1728,-0.171,-0.1711,-0.174,-0.1774,-0.1714,-0.1715,-0.1766,-0.1768,-0.177,-0.1863,0,0,0,0,0,0,-0.1587,-0.1591,-0.165,-0.1653,-0.1626,-0.1661,-0.1667,-0.1677,-0.1691,-0.1694,-0.1698,-0.1699,-0.171,-0.1711,-0.1711,-0.1777,-0.1714,-0.1714,-0.1714,-0.1768,-0.1769,-0.1771,0,0,0,0,0,0,-0.1588,-0.1593,-0.1651,-0.1651,-0.1655,-0.1659,-0.1665,-0.1665,-0.169,-0.1686,-0.1689,-0.1698,-0.1704,-0.171,-0.1711,-0.1711,-0.1714,-0.1714,-0.1714,-0.1714,-0.1769,-0.177,0,0,0,0,0,0,-0.159,-0.1595,-0.165,-0.1653,-0.1656,-0.1691,-0.1659,-0.1692,-0.1706,-0.1685,-0.1706,-0.1706,-0.1704,-0.1705,-0.1711,-0.171,-0.1711,-0.1714,-0.1714,-0.1714,-0.1714,0,0,0,0,0,0,0,-0.1592,-0.1556,-0.1634,-0.1654,-0.1657,-0.1683,-0.1684,-0.1685,-0.1706,-0.1706,-0.1706,-0.1706,-0.1714,-0.1714,-0.1714,-0.171,0,0,-0.1714,-0.1714,0,0,0,0,0,0,0,0,-0.1554,-0.1555,-0.1634,-0.1635,-0.1636,-0.1684,-0.1684,-0.1684,-0.1706,-0.1706,-0.1706,-0.1706,-0.1714,-0.1714,-0.1714,0,0,0,0,0,0,0,0,0,0,0,0,0,0,0,-0.1634,-0.1635,0,-0.1684,-0.1684,-0.1684,-0.1706,-0.1706,-0.1706,-0.1706,-0.1714,-0.1714,-0.1714,0,0,0,0,0,0,0,0,0,0,0,0,0,0,0,0,0,0,0,0,0,0,0,0,0,0,0,0,0,0,0,0,0,0,0,0,0,0,0,0,0,0,0,0,0,0,0,0,0,0,0,0,0,0,0,0,0,0,0,0,0,0,0,0,0,0,0,0,0]}],[{"header":{"parameterUnit":"kt","parameterCategory":2,"dx":1,"dy":1,"la1":30.253999710083008,"la2":30.299108505249023,"lo1":-89.0895004272461,"lo2":-89.04439544677734,"nx":28,"ny":28,"refTime":"2022-10-24T21:00:00:Z","depth":"4","parameterNumber":3,"parameterNumberName":"V-component_of_CURRENTS"},"data":[-0.1191,-0.1285,-0.1325,-0.1456,-0.1521,-0.159,-0.1564,-0.1462,-0.1374,-0.1199,-0.1017,-0.084,-0.0513,-0.0584,-0.0169,-0.0103,-0.008,0.0355,0.0357,0.0405,0.0404,0.0403,0.032,0,0,0,0,0,-0.1164,-0.1228,-0.1312,-0.1399,-0.1477,-0.1501,-0.1467,-0.1408,-0.1259,-0.1156,-0.1032,-0.0813,-0.0475,-0.0295,-0.0147,-0.0011,0.0198,0.0163,0.0193,0.0404,0.0403,0.0323,0,0,0,0,0,0,-0.1126,-0.1178,-0.1246,-0.1314,-0.1387,-0.1419,-0.1391,-0.1312,-0.1238,-0.0988,-0.093,-0.0627,-0.0425,-0.0151,0.0018,0.018,0.0188,0.0184,0.0195,0.0197,0.0101,0.0011,0.0058,0,0,0,0,0,-0.1078,-0.1107,-0.1141,-0.1235,-0.1273,-0.1292,-0.1278,-0.1246,-0.1096,-0.0985,-0.0788,-0.0581,-0.0345,-0.0098,0.0097,0.0236,0.0369,0.0409,0.0408,0.0343,0.0297,0.03,0.0289,0.04,0.04,0.04,0.04,0,-0.1019,-0.105,-0.1093,-0.1131,-0.1134,-0.1142,-0.1147,-0.1038,-0.0994,-0.0781,-0.0748,-0.0508,-0.0354,-0.0073,0.0125,0.034,0.0347,0.0407,0.0337,0.0294,0.0301,0.0288,0.0277,0.0399,0.0399,0.0399,0.04,0,-0.0987,-0.0986,-0.1023,-0.101,-0.1013,-0.1028,-0.0974,-0.0948,-0.0826,-0.0743,-0.07,-0.047,-0.0273,-0.008,0.0124,0.0183,0.0316,0.0349,0.0285,0.0296,0.0282,0.027,0.0398,0.0399,0.0399,0.0399,0.0399,0,-0.0922,-0.0942,-0.0939,-0.0953,-0.0973,-0.0905,-0.0885,-0.0821,-0.0714,-0.0657,-0.0501,-0.0417,-0.022,-0.0077,0.0019,0.0163,0.0199,0.0216,0.0235,0.018,0.0169,0.0199,0.019,0.0273,0.0272,0.0271,0.027,0,-0.0874,-0.087,-0.0896,-0.0888,-0.0845,-0.0832,-0.08,-0.0697,-0.0653,-0.0524,-0.0471,-0.0322,-0.0243,-0.0133,0.0005,-0.0019,0.018,0.0163,0.0199,0.0197,0.019,0.0182,0.0269,0.0269,0.0269,0.0268,0.0268,0,-0.0808,-0.0819,-0.0841,-0.081,-0.0803,-0.079,-0.0718,-0.0677,-0.0561,-0.0507,-0.041,-0.0335,-0.0218,-0.0215,-0.0044,-0.009,-0.0028,0.0031,0.0037,0.0028,0.0019,0.0036,0.0094,0.0092,0.0091,0.0089,0.0087,0,-0.0767,-0.0792,-0.0757,-0.0761,-0.0766,-0.0702,-0.0665,-0.0604,-0.0541,-0.0474,-0.0384,-0.032,-0.029,-0.0257,-0.019,-0.0106,-0.005,-0.0117,0.0018,0.0022,-0.0008,0.0043,-0.0056,0.0064,0.0067,0.0069,0.007,0,-0.0733,-0.0718,-0.0721,-0.0722,-0.0677,-0.0666,-0.0622,-0.0568,-0.0534,-0.0475,-0.0418,-0.0338,-0.0297,-0.0261,-0.0215,-0.0156,-0.0084,-0.0148,-0.0145,-0.0107,0.0044,0.0017,0.0029,-0.0068,-0.0065,-0.0064,0.0054,0,-0.0684,-0.0688,-0.0691,-0.0677,-0.0655,-0.0651,-0.0599,-0.0571,-0.0539,-0.0496,-0.0425,-0.0365,-0.0299,-0.0279,-0.0257,-0.0183,-0.018,-0.0174,-0.0166,-0.014,-0.0094,-0.0081,-0.023,-0.023,-0.023,-0.023,0,0,-0.0654,-0.0662,-0.0637,-0.0637,-0.0623,-0.0584,-0.0583,-0.055,-0.0503,-0.0473,-0.0473,-0.0369,-0.0333,-0.0257,-0.0249,-0.0235,-0.0204,-0.0234,-0.0161,-0.0154,-0.0147,-0.0101,-0.0089,-0.023,-0.023,-0.0229,-0.0229,0,-0.0636,-0.0627,-0.0639,-0.062,-0.0599,-0.0573,-0.0571,-0.0535,-0.0512,-0.0478,-0.044,-0.0392,-0.0344,-0.0293,-0.0265,-0.0238,-0.0208,-0.0235,-0.0225,-0.0162,-0.0155,-0.0149,-0.0103,-0.0092,-0.0229,-0.0229,-0.0229,0,-0.0608,-0.0598,-0.06,-0.0581,-0.0565,-0.0552,-0.053,-0.0518,-0.05,-0.0462,-0.0429,-0.0394,-0.0346,-0.0305,-0.0286,-0.0283,-0.0205,-0.0242,-0.0242,-0.0236,-0.017,-0.0163,-0.0156,-0.0242,-0.0242,-0.0243,0,0,-0.0595,-0.06,-0.057,-0.0575,-0.0566,-0.0536,-0.0525,-0.051,-0.0479,-0.0468,-0.0432,-0.0394,-0.0354,-0.0331,-0.0299,-0.0262,-0.0229,-0.0245,-0.0244,-0.0244,-0.0238,-0.0173,-0.0165,-0.0243,-0.0243,-0.0243,0,0,-0.0585,-0.0564,-0.0558,-0.0561,-0.0539,-0.0504,-0.0503,-0.0486,-0.0458,-0.0458,-0.0416,-0.0406,-0.0369,-0.0346,-0.0359,-0.0294,-0.0295,-0.0291,-0.031,-0.0308,-0.0308,-0.0309,-0.0341,0,0,0,0,0,-0.0557,-0.0567,-0.0561,-0.0558,-0.0532,-0.0509,-0.0503,-0.0482,-0.0476,-0.0474,-0.0439,-0.0425,-0.0342,-0.0353,-0.0343,-0.0327,-0.0252,-0.0251,-0.0249,-0.0264,-0.0263,-0.0262,0,0,0,0,0,0,-0.0556,-0.0553,-0.056,-0.0529,-0.0522,-0.0508,-0.0494,-0.0488,-0.0476,-0.0474,-0.0432,-0.0424,-0.0397,-0.0356,-0.0348,-0.0333,-0.0343,-0.0252,-0.025,-0.0249,-0.0264,-0.0263,-0.0262,0,0,0,0,0,-0.0555,-0.0552,-0.0521,-0.0528,-0.0522,-0.0493,-0.0494,-0.0489,-0.048,-0.0437,-0.043,-0.0466,-0.0398,-0.0389,-0.0351,-0.0338,-0.0349,-0.0346,-0.0251,-0.025,-0.0249,-0.0263,0,0,0,0,0,0,-0.0554,-0.0544,-0.0519,-0.0516,-0.0529,-0.0494,-0.0489,-0.049,-0.0443,-0.0436,-0.0469,-0.0468,-0.0399,-0.0391,-0.0384,-0.034,-0.0354,-0.0351,-0.0349,-0.025,-0.0249,-0.0248,0,0,0,0,0,0,-0.0545,-0.0542,-0.0517,-0.0521,-0.0517,-0.0494,-0.049,-0.0458,-0.0442,-0.0477,-0.0475,-0.0469,-0.0403,-0.0393,-0.0387,-0.0338,-0.0357,-0.0354,-0.0352,-0.0351,-0.0249,-0.0249,0,0,0,0,0,0,-0.0543,-0.054,-0.0521,-0.0519,-0.0516,-0.0477,-0.0464,-0.0436,-0.0457,-0.0479,-0.0457,-0.0457,-0.0405,-0.0399,-0.0389,-0.0343,-0.034,-0.0357,-0.0355,-0.0354,-0.0353,0,0,0,0,0,0,0,-0.0541,-0.057,-0.0539,-0.0518,-0.0515,-0.0484,-0.0483,-0.0482,-0.0457,-0.0457,-0.0457,-0.0457,-0.0374,-0.0371,-0.0368,-0.0347,0,0,-0.0358,-0.0356,0,0,0,0,0,0,0,0,-0.0571,-0.0571,-0.0539,-0.0538,-0.0537,-0.0484,-0.0483,-0.0483,-0.0457,-0.0457,-0.0457,-0.0457,-0.0373,-0.0371,-0.0368,0,0,0,0,0,0,0,0,0,0,0,0,0,0,0,-0.0538,-0.0538,0,-0.0484,-0.0483,-0.0483,-0.0457,-0.0457,-0.0457,-0.0457,-0.0373,-0.0371,-0.0368,0,0,0,0,0,0,0,0,0,0,0,0,0,0,0,0,0,0,0,0,0,0,0,0,0,0,0,0,0,0,0,0,0,0,0,0,0,0,0,0,0,0,0,0,0,0,0,0,0,0,0,0,0,0,0,0,0,0,0,0,0,0,0,0,0,0,0,0,0]}]]]